DW0275 Weather Reports


time (UTC)temp
C
wind
direction
speed
KPH
gust
KPH
rain 1hr
cm
rain 24hr
cm
rain mn
cm
humidity
%
barometer
mb
20260901140828 30 29 1.6 4.8 0.00 0.00 0.00 82 1016.8
20260901140326 30 3 1.6 4.8 0.00 0.00 0.00 82 1016.9
20260901140055 30 354 0.0 4.8 0.00 0.00 0.00 83 1016.7
20260901135842 30 354 3.2 4.8 0.00 0.00 0.00 82 1016.8
20260901135318 30 27 3.2 6.4 0.00 0.00 0.00 83 1016.8
20260901134835 30 348 1.6 8.0 0.00 0.00 0.00 83 1016.8
20260901134522 29 340 3.2 8.0 0.00 0.00 0.00 83 1016.6
20260901134352 30 40 4.8 8.0 0.00 0.00 0.00 83 1016.7
20260901133828 30 355 3.2 6.4 0.00 0.00 0.00 83 1016.8
20260901133322 30 14 4.8 6.4 0.00 0.00 0.00 83 1016.8
20260901133034 30 2 1.6 6.4 0.00 0.00 0.00 84 1016.6
20260901132839 30 13 1.6 9.7 0.00 0.00 0.00 83 1016.7
20260901132350 30 343 1.6 9.7 0.00 0.00 0.00 83 1016.7
20260901131826 29 351 1.6 8.0 0.00 0.00 0.00 84 1016.8
20260901131556 29 346 3.2 8.0 0.00 0.00 0.00 84 1016.6
20260901131324 29 349 1.6 8.0 0.00 0.00 0.00 84 1016.7
20260901130819 29 344 0.0 6.4 0.00 0.00 0.00 84 1016.7
20260901130045 29 20 0.0 4.8 0.00 0.00 0.00 85 1016.7
20260901125850 29 346 0.0 4.8 0.00 0.00 0.00 85 1016.8
20260901125326 29 360 0.0 0.0 0.00 0.00 0.00 86 1016.7
20260901124822 28 360 0.0 0.0 0.00 0.00 0.00 88 1016.7
20260901124520 28 360 0.0 0.0 0.00 0.00 0.00 89 1016.5
20260901124318 28 360 0.0 0.0 0.00 0.00 0.00 89 1016.8
20260901123835 27 360 0.0 0.0 0.00 0.00 0.00 89 1016.7
20260901123350 27 329 0.0 0.0 0.00 0.00 0.00 89 1016.6
20260901123039 27 329 0.0 0.0 0.00 0.00 0.00 89 1016.6
20260901122826 27 329 0.0 0.0 0.00 0.00 0.00 89 1016.6
20260901122321 27 329 0.0 0.0 0.00 0.00 0.00 89 1016.5
20260901121816 27 329 0.0 0.0 0.00 0.00 0.00 90 1016.5
20260901121549 26 329 0.0 1.6 0.00 0.00 0.00 91 1016.4
20260901121332 27 329 0.0 1.6 0.00 0.00 0.00 91 1016.5
20260901120828 26 329 0.0 1.6 0.00 0.00 0.00 91 1016.5
20260901120325 26 6 0.0 0.0 0.00 0.00 0.00 92 1016.5
20260901120042 26 352 0.0 0.0 0.00 0.00 0.00 92 1016.3
20260901115820 26 352 0.0 0.0 0.00 0.00 0.00 92 1016.5
20260901115316 26 352 0.0 0.0 0.00 0.00 0.00 93 1016.3
20260901114814 25 352 0.0 0.0 0.00 0.00 0.00 93 1016.3
20260901114513 25 352 0.0 0.0 0.00 0.00 0.00 93 1016.1
20260901114331 25 352 0.0 0.0 0.00 0.00 0.00 93 1016.2
20260901113828 25 352 0.0 0.0 0.00 0.00 0.00 93 1016.1
20260901113326 25 352 0.0 0.0 0.00 0.00 0.00 93 1016.2
20260901113103 25 352 0.0 0.0 0.00 0.00 0.00 93 1016.0
20260901112823 25 352 0.0 0.0 0.00 0.00 0.00 93 1016.1
20260901112319 25 352 0.0 0.0 0.00 0.00 0.00 93 1016.0
20260901111816 25 352 0.0 0.0 0.00 0.00 0.00 93 1015.9
20260901111602 25 352 0.0 0.0 0.00 0.00 0.00 93 1015.7
20260901111333 25 352 0.0 0.0 0.00 0.00 0.00 93 1015.8
20260901110829 25 350 0.0 0.0 0.00 0.00 0.00 93 1015.7
20260901110323 25 350 0.0 0.0 0.00 0.00 0.00 93 1015.8
20260901110037 25 350 0.0 0.0 0.00 0.00 0.00 93 1015.6
20260901105820 25 350 0.0 0.0 0.00 0.00 0.00 93 1015.8
20260901105319 25 350 0.0 0.0 0.00 0.00 0.00 93 1015.6
20260901104817 25 350 0.0 0.0 0.00 0.00 0.00 93 1015.8
20260901104521 25 350 0.0 0.0 0.00 0.00 0.00 92 1015.6
20260901104334 25 350 0.0 0.0 0.00 0.00 0.00 92 1015.8
20260901103831 25 350 0.0 1.6 0.00 0.00 0.00 93 1015.7
20260901103327 25 350 0.0 0.0 0.00 0.00 0.00 93 1015.8
20260901103011 25 350 0.0 0.0 0.00 0.00 0.00 92 1015.6
20260901102822 25 350 0.0 1.6 0.00 0.00 0.00 93 1015.8
20260901102338 25 350 0.0 1.6 0.00 0.00 0.00 93 1015.6
20260901101829 25 350 0.0 0.0 0.00 0.00 0.00 93 1015.7
20260901101532 25 350 0.0 1.6 0.00 0.00 0.00 93 1015.4
20260901101325 25 350 0.0 1.6 0.00 0.00 0.00 93 1015.7
20260901100843 25 350 0.0 1.6 0.00 0.00 0.00 93 1015.6
20260901100319 25 350 0.0 0.0 0.00 0.00 0.00 93 1015.6
20260901100056 25 350 0.0 0.0 0.00 0.00 0.00 93 1015.6
20260901095816 25 350 0.0 0.0 0.00 0.00 0.00 93 1015.8
20260901095333 25 351 0.0 0.0 0.00 0.00 0.00 93 1015.6
20260901094829 25 351 0.0 0.0 0.00 0.00 0.00 93 1015.6
20260901094539 25 351 0.0 0.0 0.00 0.00 0.00 93 1015.4
20260901094347 25 351 0.0 1.6 0.00 0.00 0.00 93 1015.5
20260901093823 25 351 0.0 1.6 0.00 0.00 0.00 93 1015.6
20260901093320 25 351 0.0 1.6 0.00 0.00 0.00 93 1015.4
20260901093003 25 351 0.0 1.6 0.00 0.00 0.00 93 1015.4
20260901092818 25 345 0.0 1.6 0.00 0.00 0.00 93 1015.5
20260901092315 25 349 0.0 1.6 0.00 0.00 0.00 93 1015.4
20260901091834 25 349 0.0 1.6 0.00 0.00 0.00 93 1015.4
20260901091547 25 349 0.0 0.0 0.00 0.00 0.00 93 1015.4
20260901091331 25 349 0.0 0.0 0.00 0.00 0.00 93 1015.5
20260901090826 25 349 0.0 0.0 0.00 0.00 0.00 93 1015.4
20260901090322 25 349 0.0 0.0 0.00 0.00 0.00 93 1015.5
20260901090039 25 349 0.0 0.0 0.00 0.00 0.00 93 1015.4
20260901085820 25 349 0.0 0.0 0.00 0.00 0.00 93 1015.5
20260901085336 25 349 0.0 0.0 0.00 0.00 0.00 93 1015.6
20260901084833 25 349 0.0 0.0 0.00 0.00 0.00 93 1015.7
20260901084559 25 349 0.0 0.0 0.00 0.00 0.00 93 1015.5
20260901084501 25 349 0.0 0.0 0.00 0.00 0.00 93 1015.6
20260901084330 25 349 0.0 0.0 0.00 0.00 0.00 93 1015.6
20260901083828 25 349 0.0 0.0 0.00 0.00 0.00 93 1015.6
20260901083325 25 349 0.0 0.0 0.00 0.00 0.00 93 1015.7
20260901083043 25 349 0.0 0.0 0.00 0.00 0.00 93 1015.6
20260901082840 25 349 0.0 0.0 0.00 0.00 0.00 93 1015.8
20260901082316 25 349 0.0 0.0 0.00 0.00 0.00 93 1015.6
20260901081839 25 349 0.0 0.0 0.00 0.00 0.00 93 1015.6
20260901081549 25 349 0.0 0.0 0.00 0.00 0.00 92 1015.6
20260901081354 25 349 0.0 0.0 0.00 0.00 0.00 93 1015.5
20260901080328 25 349 0.0 0.0 0.00 0.00 0.00 92 1015.5
20260901080021 25 349 0.0 0.0 0.00 0.00 0.00 92 1015.5
20260901075826 25 349 0.0 0.0 0.00 0.00 0.00 92 1015.6
20260901075341 25 349 0.0 0.0 0.00 0.00 0.00 92 1015.6
20260901074817 25 349 0.0 0.0 0.00 0.00 0.00 92 1015.8
20260901074543 25 349 0.0 0.0 0.00 0.00 0.00 92 1015.7
20260901074314 25 349 0.0 0.0 0.00 0.00 0.00 92 1015.8
20260901073833 25 349 0.0 0.0 0.00 0.00 0.00 92 1015.8
20260901073329 25 349 0.0 0.0 0.00 0.00 0.00 92 1015.9
20260901073029 25 349 0.0 0.0 0.00 0.00 0.00 92 1015.8
20260901072827 25 349 0.0 0.0 0.00 0.00 0.00 92 1015.9
20260901072339 25 349 0.0 0.0 0.00 0.00 0.00 92 1016.0
20260901071816 26 349 0.0 0.0 0.00 0.00 0.00 92 1016.1
20260901071551 25 349 0.0 0.0 0.00 0.00 0.00 92 1015.9
20260901071332 26 349 0.0 0.0 0.00 0.00 0.00 92 1016.0
20260901070829 26 349 0.0 0.0 0.00 0.00 0.00 92 1016.0
20260901070324 26 349 0.0 0.0 0.00 0.00 0.00 92 1016.1
20260901070034 26 349 0.0 0.0 0.00 0.00 0.00 92 1016.0
20260901065841 26 349 0.0 0.0 0.00 0.00 0.00 92 1016.1
20260901065336 26 345 0.0 0.0 0.00 0.00 0.00 92 1016.2
20260901064832 26 345 0.0 3.2 0.00 0.00 0.00 91 1016.0
20260901064537 26 3 0.0 3.2 0.00 0.00 0.00 91 1015.8
20260901064349 26 3 0.0 3.2 0.00 0.00 0.00 91 1016.0
20260901063825 26 110 0.0 0.0 0.00 0.00 0.00 91 1016.0
20260901063323 26 110 0.0 0.0 0.00 0.00 0.00 91 1016.1
20260901063110 25 110 0.0 0.0 0.00 0.00 0.00 91 1016.0
20260901063006 25 110 0.0 0.0 0.00 0.00 0.00 91 1016.0
20260901062820 26 110 0.0 0.0 0.00 0.00 0.00 91 1016.1
20260901062318 26 110 0.0 0.0 0.00 0.00 0.00 91 1016.1
20260901061815 26 110 0.0 0.0 0.00 0.00 0.00 91 1016.2
20260901061559 25 110 0.0 0.0 0.00 0.00 0.00 91 1016.0
20260901061332 26 110 0.0 0.0 0.00 0.00 0.00 91 1016.2
20260901060828 26 110 0.0 0.0 0.00 0.00 0.00 91 1016.2
20260901060345 26 110 0.0 0.0 0.00 0.00 0.00 91 1016.2
20260901060008 25 110 0.0 0.0 0.00 0.00 0.00 90 1016.0
20260901055841 26 110 0.0 0.0 0.00 0.00 0.00 90 1016.1
20260901055337 26 110 0.0 0.0 0.00 0.00 0.00 90 1016.3
20260901054833 26 110 0.0 0.0 0.00 0.00 0.00 90 1016.3
20260901054554 26 110 0.0 0.0 0.00 0.00 0.00 90 1016.2
20260901054351 26 110 0.0 0.0 0.00 0.00 0.00 90 1016.4
20260901053846 26 110 0.0 0.0 0.00 0.00 0.00 90 1016.5
20260901053320 26 110 0.0 0.0 0.00 0.00 0.00 90 1016.5
20260901053108 25 110 0.0 0.0 0.00 0.00 0.00 90 1016.3
20260901052819 26 128 0.0 0.0 0.00 0.00 0.00 90 1016.5
20260901052315 26 128 0.0 0.0 0.00 0.00 0.00 90 1016.4
20260901051830 26 128 0.0 0.0 0.00 0.00 0.00 90 1016.5
20260901051545 26 128 0.0 0.0 0.00 0.00 0.00 90 1016.4
20260901051327 26 128 0.0 0.0 0.00 0.00 0.00 90 1016.5
20260901050824 26 128 0.0 0.0 0.00 0.00 0.00 90 1016.5
20260901050323 26 128 0.0 0.0 0.00 0.00 0.00 90 1016.5
20260901050027 26 128 0.0 0.0 0.00 0.00 0.00 89 1016.5
20260901045819 26 128 0.0 0.0 0.00 0.00 0.00 89 1016.7
20260901045315 26 128 0.0 0.0 0.00 0.00 0.00 89 1016.8
20260901044832 26 128 0.0 0.0 0.00 0.00 0.00 89 1016.7
20260901044510 25 128 0.0 0.0 0.00 0.00 0.00 89 1016.8
20260901044328 26 128 0.0 0.0 0.00 0.00 0.00 89 1016.9
20260901043845 26 128 0.0 0.0 0.00 0.00 0.00 89 1017.0
20260901043320 26 128 0.0 0.0 0.00 0.00 0.00 89 1017.1
20260901043037 25 128 0.0 0.0 0.00 0.00 0.00 89 1016.9
20260901042816 26 128 0.0 0.0 0.00 0.00 0.00 89 1017.1
20260901042332 26 128 0.0 0.0 0.00 0.00 0.00 89 1017.2
20260901041830 26 128 0.0 0.0 0.00 0.00 0.00 89 1017.2
20260901041519 26 128 0.0 0.0 0.00 0.00 0.00 88 1017.2
20260901041326 26 128 0.0 0.0 0.00 0.00 0.00 88 1017.3
20260901040823 26 128 0.0 0.0 0.00 0.00 0.00 88 1017.2
20260901040318 26 128 0.0 0.0 0.00 0.00 0.00 88 1017.3
20260901040011 26 128 0.0 0.0 0.00 0.00 0.00 88 1017.2
20260901035836 26 128 0.0 0.0 0.00 0.00 0.00 88 1017.3
20260901035353 26 128 0.0 0.0 0.00 0.00 0.00 89 1017.4
20260901034830 26 128 0.0 0.0 0.00 0.00 0.00 89 1017.4
20260901034525 26 128 0.0 0.0 0.00 0.00 0.00 89 1017.3
20260901034327 26 128 0.0 0.0 0.00 0.00 0.00 89 1017.5
20260901033823 26 128 0.0 0.0 0.00 0.00 0.00 89 1017.4
20260901033318 26 130 0.0 1.6 0.00 0.00 0.00 89 1017.5
20260901033016 26 105 0.0 1.6 0.00 0.00 0.00 89 1017.5
20260901032814 27 154 0.0 0.0 0.00 0.00 0.00 89 1017.5
20260901032358 27 154 0.0 4.8 0.00 0.00 0.00 89 1017.5
20260901031853 27 154 1.6 4.8 0.00 0.00 0.00 89 1017.5
20260901031517 27 124 0.0 9.7 0.00 0.00 0.00 90 1017.4
20260901031330 27 129 1.6 9.7 0.00 0.00 0.00 90 1017.5
20260901030827 27 119 1.6 9.7 0.00 0.00 0.00 90 1017.7
20260901030323 27 356 0.0 0.0 0.00 0.00 0.00 90 1017.6
20260901030006 27 356 0.0 0.0 0.00 0.00 0.00 89 1017.6
20260901025821 27 356 0.0 0.0 0.00 0.00 0.00 89 1017.6
20260901025317 27 356 0.0 0.0 0.00 0.00 0.00 89 1017.7
20260901024815 27 356 0.0 0.0 0.00 0.00 0.00 89 1017.7
20260901024553 27 356 0.0 0.0 0.00 0.00 0.00 89 1017.7
20260901024332 27 356 0.0 0.0 0.00 0.00 0.00 89 1017.8
20260901023849 27 356 0.0 0.0 0.00 0.00 0.00 89 1017.8
20260901023324 27 2 0.0 0.0 0.00 0.00 0.00 88 1017.8
20260901023012 27 2 0.0 0.0 0.00 0.00 0.00 88 1017.8
20260901022821 27 13 0.0 0.0 0.00 0.00 0.00 88 1017.8
20260901022317 27 15 0.0 0.0 0.00 0.00 0.00 88 1017.8
20260901021814 27 15 0.0 0.0 0.00 0.00 0.00 88 1017.8
20260901021604 27 15 0.0 0.0 0.00 0.00 0.00 88 1017.6
20260901021332 27 15 0.0 0.0 0.00 0.00 0.00 88 1017.6
20260901020828 27 20 0.0 0.0 0.00 0.00 0.00 88 1017.4
20260901020325 27 20 0.0 0.0 0.00 0.00 0.00 88 1017.4
20260901020047 27 20 0.0 0.0 0.00 0.00 0.00 87 1017.3
20260901015822 27 20 0.0 0.0 0.00 0.00 0.00 87 1017.4
20260901015335 27 20 0.0 0.0 0.00 0.00 0.00 87 1017.3
20260901014853 27 20 0.0 0.0 0.00 0.00 0.00 88 1017.2
20260901014545 27 46 0.0 0.0 0.00 0.00 0.00 88 1017.1
20260901014328 27 46 0.0 0.0 0.00 0.00 0.00 88 1017.2
20260901013824 27 46 0.0 0.0 0.00 0.00 0.00 88 1017.1
20260901013321 27 46 0.0 0.0 0.00 0.00 0.00 88 1017.2
20260901013035 27 46 0.0 0.0 0.00 0.00 0.00 88 1017.1
20260901012817 27 46 0.0 0.0 0.00 0.00 0.00 88 1017.1
20260901012334 27 46 0.0 0.0 0.00 0.00 0.00 88 1017.1
20260901011830 27 46 0.0 0.0 0.00 0.00 0.00 88 1017.1
20260901011518 27 46 0.0 0.0 0.00 0.00 0.00 88 1017.1
20260901011329 27 46 0.0 1.6 0.00 0.00 0.00 88 1017.1
20260901010823 27 46 0.0 3.2 0.00 0.00 0.00 88 1017.0
20260901010321 27 46 0.0 4.8 0.00 0.00 0.00 88 1016.9
20260901010035 27 46 1.6 4.8 0.00 0.08 0.00 89 1016.8
20260901005837 27 46 0.0 3.2 0.00 0.08 0.00 89 1016.8
20260901005332 27 25 1.6 6.4 0.00 0.08 0.00 89 1016.7
20260901004829 27 24 1.6 6.4 0.00 0.08 0.00 89 1016.7
20260901004505 27 349 0.0 4.8 0.00 0.08 0.00 89 1016.7
20260901004345 27 336 1.6 3.2 0.00 0.08 0.00 89 1016.9
20260901003821 27 13 0.0 4.8 0.00 0.08 0.00 90 1016.9
20260901003317 27 337 0.0 3.2 0.00 0.08 0.00 90 1016.6
20260901003022 27 352 0.0 1.6 0.00 0.08 0.00 90 1016.5
20260901002836 27 6 0.0 1.6 0.00 0.08 0.00 90 1016.6
20260901002332 27 6 0.0 3.2 0.00 0.08 0.00 90 1016.7
20260901001831 27 356 1.6 3.2 0.00 0.08 0.00 90 1016.7
20260901001541 27 4 0.0 4.8 0.00 0.08 0.00 90 1016.5
20260901001348 27 339 1.6 4.8 0.00 0.08 0.00 90 1016.5
20260901000825 27 333 0.0 4.8 0.00 0.08 0.00 90 1016.6
20260901000322 27 349 0.0 6.4 0.00 0.08 0.00 89 1016.6
20260901000008 27 350 0.0 6.4 0.00 0.20 0.00 89 1016.4
20260831235839 27 349 1.6 6.4 0.00 0.20 0.00 89 1016.5
20260831235315 27 19 3.2 6.4 0.00 0.20 0.00 89 1016.4
20260831234832 27 349 1.6 4.8 0.00 0.20 0.00 89 1016.4
20260831234528 27 9 0.0 1.6 0.00 0.20 0.00 89 1016.4
20260831234328 27 37 0.0 1.6 0.00 0.20 0.00 89 1016.4
20260831233842 27 39 0.0 0.0 0.00 0.20 0.00 88 1016.4
20260831233317 28 39 0.0 0.0 0.00 0.20 0.00 88 1016.4
20260831233056 27 39 0.0 0.0 0.00 0.20 0.00 87 1016.3
20260831232815 28 39 0.0 0.0 0.00 0.20 0.00 87 1016.4
20260831232329 28 39 0.0 3.2 0.00 0.20 0.00 87 1016.4
20260831231826 28 39 0.0 3.2 0.00 0.20 0.00 86 1016.3
20260831231551 27 39 0.0 3.2 0.00 0.20 0.00 86 1016.2
20260831231322 28 10 0.0 0.0 0.00 0.20 0.00 86 1016.3
20260831230819 28 132 0.0 0.0 0.00 0.20 0.00 86 1016.3
20260831230316 28 135 0.0 0.0 0.00 0.20 0.00 87 1016.3
20260831230035 27 136 0.0 0.0 0.00 0.20 0.00 87 1016.2
20260831225833 28 135 0.0 0.0 0.00 0.20 0.00 87 1016.3
20260831225332 28 144 0.0 0.0 0.00 0.20 0.00 87 1016.3
20260831224829 28 144 0.0 0.0 0.00 0.20 0.00 87 1016.1
20260831224520 27 144 0.0 0.0 0.00 0.20 0.00 87 1016.0
20260831224326 28 144 0.0 0.0 0.00 0.20 0.00 87 1016.1
20260831223823 27 144 0.0 0.0 0.00 0.20 0.00 86 1016.2
20260831223340 28 144 0.0 0.0 0.00 0.20 0.00 86 1016.3
20260831223053 27 144 0.0 0.0 0.00 0.20 0.00 86 1016.3
20260831222834 28 144 0.0 0.0 0.00 0.20 0.00 86 1016.3
20260831222330 28 144 0.0 0.0 0.00 0.20 0.00 86 1016.4
20260831221827 28 144 0.0 0.0 0.00 0.20 0.00 86 1016.5
20260831221530 27 144 0.0 0.0 0.00 0.20 0.00 85 1016.4
20260831221323 28 144 0.0 0.0 0.00 0.20 0.00 85 1016.4
20260831220840 28 144 0.0 0.0 0.00 0.20 0.00 85 1016.2
20260831220315 28 144 0.0 0.0 0.00 0.20 0.00 85 1016.3
20260831220052 27 144 0.0 0.0 0.00 0.20 0.00 85 1016.3
20260831215831 28 144 0.0 0.0 0.00 0.20 0.00 85 1016.3
20260831215349 28 144 0.0 4.8 0.00 0.20 0.00 85 1016.4
20260831214826 28 144 1.6 4.8 0.00 0.20 0.00 85 1016.3
20260831214514 28 132 0.0 4.8 0.00 0.20 0.00 84 1016.2
20260831214323 28 132 0.0 4.8 0.00 0.20 0.00 84 1016.3
20260831213821 28 129 3.2 4.8 0.00 0.20 0.00 84 1016.3
20260831213010 27 122 0.0 4.8 0.00 0.20 0.00 84 1016.2
20260831212831 28 122 0.0 4.8 0.00 0.20 0.00 84 1016.4
20260831212326 28 98 1.6 12.9 0.00 0.20 0.00 84 1016.5
20260831211821 28 120 8.0 12.9 0.00 0.20 0.00 84 1016.5
20260831211554 28 118 6.4 12.9 0.00 0.20 0.00 84 1016.4
20260831211338 28 120 8.0 11.3 0.00 0.20 0.00 84 1016.5
20260831210833 28 82 3.2 9.7 0.00 0.20 0.00 84 1016.5
20260831210330 28 67 3.2 12.9 0.00 0.20 0.00 84 1016.4
20260831210016 28 155 4.8 12.9 0.00 0.20 0.00 84 1016.4
20260831205827 28 135 6.4 12.9 0.00 0.20 0.00 84 1016.5
20260831205323 28 120 6.4 16.1 0.00 0.20 0.00 84 1016.5
20260831204820 29 122 9.7 16.1 0.00 0.20 0.00 83 1016.4
20260831204504 30 77 4.8 14.5 0.00 0.20 0.00 83 1016.3
20260831204316 30 57 4.8 17.7 0.00 0.20 0.00 83 1016.5
20260831203831 30 34 11.3 19.3 0.00 0.20 0.00 82 1016.5
20260831203327 31 19 9.7 19.3 0.00 0.20 0.00 82 1016.4
20260831203050 30 344 8.0 16.1 0.00 0.20 0.00 82 1016.4
20260831202824 31 340 8.0 16.1 0.00 0.20 0.00 82 1016.5
20260831202320 31 359 8.0 14.5 0.00 0.20 0.00 81 1016.3
20260831201818 31 54 8.0 14.5 0.00 0.20 0.00 81 1016.2
20260831201542 31 335 9.7 14.5 0.00 0.20 0.00 81 1016.1
20260831201315 31 337 6.4 14.5 0.00 0.20 0.00 81 1016.1
20260831200829 31 5 6.4 12.9 0.00 0.20 0.00 81 1016.1
20260831200326 31 345 4.8 9.7 0.00 0.20 0.00 81 1016.3
20260831200032 31 338 4.8 12.9 0.00 0.20 0.00 81 1016.2
20260831195824 31 332 6.4 12.9 0.00 0.20 0.00 81 1016.2
20260831194841 31 16 8.0 16.1 0.00 0.20 0.00 81 1015.9
20260831194635 30 329 8.0 14.5 0.00 0.20 0.00 81 1015.7
20260831194337 31 58 8.0 12.9 0.00 0.20 0.00 81 1015.9
20260831193833 31 14 8.0 14.5 0.00 0.20 0.00 81 1016.0
20260831193329 31 330 8.0 14.5 0.00 0.20 0.00 81 1016.2
20260831193017 30 8 6.4 14.5 0.00 0.20 0.00 80 1016.1
20260831192826 31 333 6.4 14.5 0.00 0.20 0.00 80 1016.4
20260831192321 31 331 6.4 14.5 0.00 0.20 0.00 80 1016.7
20260831191837 31 6 6.4 14.5 0.00 0.20 0.00 81 1016.6
20260831191538 31 342 6.4 12.9 0.00 0.20 0.00 81 1016.5
20260831191314 31 339 6.4 12.9 0.00 0.20 0.00 81 1016.5
20260831190830 31 351 6.4 16.1 0.00 0.20 0.00 81 1016.4
20260831190327 31 339 9.7 16.1 0.00 0.20 0.00 81 1016.3
20260831190112 30 4 8.0 16.1 0.00 0.20 0.00 81 1016.2
20260831185822 31 23 6.4 11.3 0.00 0.20 0.00 81 1016.4
20260831185338 30 37 4.8 14.5 0.00 0.20 0.00 81 1016.6
20260831184833 30 345 8.0 14.5 0.00 0.20 0.00 81 1016.6
20260831184515 30 357 6.4 11.3 0.00 0.20 0.00 82 1016.5
20260831184329 30 36 6.4 9.7 0.00 0.20 0.00 82 1016.7
20260831183826 30 1 4.8 12.9 0.00 0.20 0.00 82 1016.9
20260831183322 30 346 4.8 12.9 0.00 0.20 0.00 82 1016.8
20260831183003 30 343 6.4 12.9 0.00 0.20 0.00 81 1016.8
20260831182817 30 346 6.4 14.5 0.00 0.20 0.00 81 1016.9
20260831182333 30 5 8.0 19.3 0.00 0.20 0.00 80 1017.1
20260831181830 31 45 9.7 17.7 0.00 0.20 0.00 80 1017.0
20260831181547 30 23 8.0 14.5 0.00 0.20 0.00 80 1017.0
20260831181347 31 35 6.4 14.5 0.00 0.20 0.00 80 1017.2
20260831180821 30 32 9.7 12.9 0.00 0.20 0.00 80 1017.3
20260831180338 30 21 6.4 12.9 0.00 0.20 0.00 81 1017.3
20260831180009 30 23 4.8 12.9 0.00 0.20 0.00 81 1017.2
20260831175853 30 18 8.0 12.9 0.00 0.20 0.00 81 1017.4
20260831175325 30 345 6.4 16.1 0.00 0.20 0.00 82 1017.5
20260831174822 30 354 3.2 17.7 0.00 0.20 0.00 82 1017.5
20260831174530 30 4 11.3 17.7 0.00 0.20 0.00 81 1017.4
20260831174335 30 7 11.3 16.1 0.00 0.20 0.00 81 1017.3
20260831173831 31 354 8.0 12.9 0.00 0.20 0.00 80 1017.5
20260831173328 31 344 8.0 12.9 0.00 0.20 0.00 80 1017.5
20260831173058 31 20 1.6 11.3 0.00 0.20 0.00 80 1017.3
20260831172843 31 39 3.2 11.3 0.00 0.20 0.00 80 1017.4
20260831172319 31 98 4.8 11.3 0.00 0.20 0.00 79 1017.4
20260831171816 32 137 4.8 8.0 0.00 0.20 0.00 79 1017.4
20260831171514 32 111 3.2 8.0 0.00 0.20 0.00 79 1017.3
20260831171334 32 145 4.8 8.0 0.00 0.20 0.00 79 1017.4
20260831170852 31 135 0.0 9.7 0.00 0.20 0.00 81 1017.3
20260831170326 31 125 3.2 12.9 0.00 0.20 0.00 80 1017.4
20260831170040 31 129 4.8 12.9 0.00 0.20 0.00 80 1017.3
20260831165822 31 105 4.8 12.9 0.00 0.20 0.00 80 1017.4
20260831165319 31 101 4.8 11.3 0.00 0.20 0.00 80 1017.4
20260831164815 31 124 3.2 9.7 0.00 0.20 0.00 81 1017.5
20260831164519 31 148 1.6 11.3 0.00 0.20 0.00 82 1017.4
20260831164330 31 129 3.2 14.5 0.00 0.20 0.00 81 1017.6
20260831163827 31 127 3.2 14.5 0.00 0.20 0.00 81 1017.6
20260831163324 31 126 3.2 11.3 0.00 0.20 0.00 81 1017.6
20260831163010 31 106 1.6 11.3 0.00 0.20 0.00 81 1017.5
20260831162819 31 125 4.8 11.3 0.00 0.20 0.00 81 1017.6
20260831162315 31 153 4.8 12.9 0.00 0.20 0.00 81 1017.6
20260831161832 31 102 3.2 12.9 0.00 0.20 0.00 81 1017.7
20260831161601 31 115 1.6 6.4 0.00 0.20 0.00 80 1017.6
20260831161501 31 146 1.6 6.4 0.00 0.20 0.00 80 1017.6
20260831161329 31 149 3.2 6.4 0.00 0.20 0.00 81 1017.8
20260831160847 31 125 3.2 6.4 0.00 0.20 0.00 81 1017.9
20260831160343 31 136 1.6 9.7 0.00 0.20 0.00 81 1018.0
20260831160104 31 140 3.2 9.7 0.00 0.20 0.00 81 1017.9
20260831155818 31 115 3.2 9.7 0.00 0.23 0.00 81 1018.0
20260831155334 31 219 1.6 8.0 0.00 0.23 0.00 82 1018.1
20260831154831 32 151 4.8 8.0 0.00 0.23 0.00 81 1018.1
20260831154536 31 188 1.6 8.0 0.00 0.23 0.00 81 1017.9
20260831154327 31 153 3.2 8.0 0.00 0.23 0.00 82 1018.1
20260831153844 31 131 1.6 9.7 0.00 0.23 0.00 82 1018.2
20260831153319 31 146 3.2 11.3 0.00 0.23 0.00 82 1018.2
20260831153101 31 161 4.8 11.3 0.00 0.23 0.00 82 1018.1
20260831153001 31 139 6.4 11.3 0.00 0.23 0.00 82 1018.1
20260831152817 31 127 4.8 9.7 0.00 0.23 0.00 82 1018.2
20260831152335 31 133 3.2 9.7 0.00 0.23 0.00 82 1018.3
20260831151852 31 135 1.6 9.7 0.00 0.23 0.00 82 1018.2
20260831151523 30 141 3.2 9.7 0.00 0.23 0.00 82 1018.2
20260831151328 30 131 3.2 9.7 0.00 0.23 0.00 82 1018.2
20260831150825 31 113 3.2 6.4 0.00 0.23 0.00 82 1018.1
20260831150323 31 103 1.6 4.8 0.00 0.23 0.00 82 1018.1
20260831150012 30 127 0.0 4.8 0.00 0.23 0.00 82 1017.9
20260831145834 30 127 0.0 4.8 0.00 0.23 0.00 82 1018.0
20260831145350 30 122 3.2 4.8 0.00 0.23 0.00 82 1018.0
20260831144826 30 124 1.6 6.4 0.00 0.23 0.00 82 1018.0
20260831144534 30 71 1.6 6.4 0.00 0.23 0.00 82 1017.9
20260831144316 30 65 1.6 6.4 0.00 0.23 0.00 82 1018.0
20260831143815 30 86 3.2 9.7 0.00 0.23 0.00 82 1018.1
20260831143331 30 84 3.2 9.7 0.00 0.23 0.00 82 1018.0
20260831143019 30 134 3.2 9.7 0.00 0.23 0.00 82 1017.9
20260831142828 31 134 3.2 8.0 0.00 0.23 0.00 82 1018.0
20260831142325 31 51 1.6 6.4 0.00 0.23 0.00 82 1017.9
20260831141822 31 229 1.6 8.0 0.00 0.23 0.00 82 1017.9
20260831141614 31 129 3.2 8.0 0.00 0.23 0.00 82 1017.7